[[{"header":{"parameterUnit":"m.s-1","parameterCategory":1,"la1":30.2991,"la2":30.254,"lo1":-89.0895,"lo2":-89.0444,"dy":0.0017,"dx":0.0017,"nx":28,"ny":28,"refTime":"2024-04-02T21:00:00:Z","depth":0,"parameterNumber":2,"parameterNumberName":"U-component_of_WINDS"},"data":[0,0,0,0,0,0,0,0,0,0,0,0,0,0,0,0,0,0,0,0,0,0,0,0,0,0,0,0,0,0,0,0,0,0,0,0,0,0,0,0,0,0,0,0,0,0,0,0,0,0,0,0,0,0,0,0,0,0,4.5887,4.5888,0,4.5959,4.596,4.5961,4.5919,4.5917,4.5915,4.5913,4.5985,4.5988,4.5992,0,0,0,0,0,0,0,0,0,0,0,0,0,4.5712,4.5715,4.5887,4.5888,4.5889,4.5959,4.596,4.5961,4.592,4.5917,4.5915,4.5913,4.5984,4.5988,4.5993,0,0,0,0,0,0,0,0,0,0,0,0,0,4.5786,4.5716,4.5887,4.5877,4.5876,4.5959,4.596,4.5961,4.592,4.5917,4.5914,4.5911,4.5982,4.5988,4.5993,4.6089,0,0,4.6011,4.6013,0,0,0,0,0,0,0,0,4.5782,4.5793,4.5877,4.5877,4.5877,4.5927,4.5925,4.6004,4.5921,4.5904,4.5913,4.591,4.5968,4.5975,4.5995,4.6092,4.6095,4.6011,4.6014,4.6017,4.6018,0,0,0,0,0,0,0,4.5777,4.5789,4.5915,4.5878,4.5879,4.5868,4.5875,4.5939,4.5952,4.5905,4.5902,4.5911,4.5967,4.5989,4.5996,4.6096,4.6011,4.6016,4.6019,4.6022,4.6278,4.6281,0,0,0,0,0,0,4.5773,4.5785,4.5913,4.5918,4.5821,4.5874,4.5882,4.5914,4.5951,4.5954,4.5914,4.5909,4.5981,4.5989,4.5998,4.6114,4.6017,4.6022,4.6025,4.6275,4.6279,4.6283,0,0,0,0,0,0,4.5769,4.5785,4.591,4.5851,4.5866,4.588,4.5917,4.5917,4.5939,4.5958,4.596,4.5934,4.5979,4.599,4.6067,4.6116,4.6025,4.603,4.6271,4.6276,4.6281,4.6345,0,0,0,0,0,0,4.5764,4.5784,4.582,4.5852,4.5869,4.5978,4.592,4.5921,4.5949,4.5944,4.5977,4.598,4.5978,4.6059,4.6073,4.6122,4.6034,4.6266,4.6273,4.6279,4.6339,4.6352,4.6363,0,0,0,0,0,4.5758,4.5834,4.5822,4.5838,4.5915,4.5981,4.5991,4.5988,4.5954,4.599,4.6003,4.5979,4.6109,4.6067,4.6083,4.6134,4.6263,4.6271,4.6279,4.6333,4.6349,4.6363,0,0,0,0,0,0,4.5806,4.5838,4.5825,4.5914,4.5945,4.5974,4.602,4.6004,4.6045,4.6038,4.6032,4.604,4.612,4.6135,4.6088,4.623,4.6181,4.6192,4.6217,4.6232,4.6244,4.6238,4.6039,0,0,0,0,0,4.5827,4.5878,4.5903,4.5979,4.5996,4.6006,4.6034,4.6029,4.6061,4.6074,4.6092,4.6123,4.6171,4.6202,4.6247,4.6341,4.6348,4.6384,4.6396,4.6406,4.6416,4.6468,4.6484,4.6308,4.6308,4.6308,0,0,4.587,4.5894,4.5927,4.599,4.6013,4.6067,4.6017,4.6075,4.6114,4.6082,4.6156,4.6171,4.6206,4.6292,4.6331,4.6307,4.6466,4.6416,4.6424,4.6428,4.6477,4.6494,4.6509,4.6313,4.6312,4.6311,0,0,4.5977,4.6,4.6066,4.6092,4.613,4.6136,4.6152,4.6185,4.6193,4.6268,4.6246,4.6293,4.6375,4.6401,4.6425,4.6545,4.6525,4.656,4.6623,4.6674,4.6688,4.67,4.6743,4.6759,4.657,4.657,4.657,0,4.6025,4.6105,4.6102,4.6163,4.6191,4.6167,4.6235,4.6259,4.6309,4.633,4.6302,4.6407,4.6429,4.6521,4.6551,4.6571,4.6589,4.6556,4.6686,4.6698,4.671,4.6751,4.6767,4.6574,4.6573,4.6573,4.6573,0,4.6164,4.622,4.6269,4.632,4.6354,4.6417,4.6424,4.6459,4.6453,4.6462,4.6539,4.6565,4.6616,4.6637,4.663,4.673,4.6714,4.6687,4.6637,4.6731,4.6769,4.6785,4.658,4.6578,4.6577,4.6576,0,0,4.6299,4.635,4.6368,4.6392,4.6433,4.6476,4.6539,4.659,4.6621,4.6657,4.671,4.6782,4.6758,4.6785,4.6781,4.6826,4.692,4.6793,4.6794,4.6816,4.7032,4.7052,4.707,4.6908,4.6911,4.6913,4.703,0,4.6408,4.652,4.652,4.6623,4.6675,4.6654,4.6709,4.6741,4.6752,4.6798,4.681,4.6861,4.6825,4.6842,4.6886,4.69,4.6964,4.6891,4.6957,4.6959,4.6948,4.709,4.7111,4.7219,4.7045,4.7047,4.7049,0,4.655,4.6593,4.6701,4.6736,4.6758,4.6808,4.6856,4.69,4.6935,4.6941,4.6973,4.6963,4.7028,4.6978,4.7067,4.7018,4.7045,4.7056,4.7061,4.7065,4.7009,4.7099,4.7254,4.727,4.7073,4.7071,4.7069,0,4.6638,4.6723,4.6799,4.682,4.6863,4.6899,4.6918,4.6951,4.6982,4.7024,4.7045,4.7093,4.712,4.7158,4.7161,4.7124,4.7252,4.7201,4.7258,4.7258,4.7284,4.7282,4.7445,4.7303,4.7303,4.7302,4.7302,0,4.6759,4.6826,4.684,4.6886,4.6961,4.6962,4.7036,4.7052,4.7082,4.7132,4.7117,4.7164,4.7166,4.7214,4.7217,4.7291,4.7303,4.7309,4.7309,4.731,4.7309,4.7327,4.7319,4.7307,4.7306,4.7305,4.7304,0,4.687,4.6882,4.6963,4.6999,4.7009,4.7063,4.7093,4.7138,4.7149,4.7212,4.7227,4.7244,4.73,4.7308,4.7373,4.7376,4.7464,4.7457,4.7453,4.7451,4.7507,4.7502,4.7686,4.771,4.7553,4.7554,4.7556,0,4.6946,4.6998,4.704,4.7073,4.7095,4.7147,4.718,4.7183,4.7218,4.7264,4.7304,4.7359,4.7403,4.7493,4.7511,4.7562,4.7555,4.7616,4.7562,4.7562,4.7555,4.7552,4.7557,4.7626,4.7627,4.7629,4.763,0,4.708,4.7084,4.7132,4.7184,4.7224,4.7264,4.7301,4.7329,4.7337,4.7377,4.7435,4.747,4.7538,4.7593,4.7643,4.7663,4.7648,4.7647,4.7663,4.7664,4.766,4.7663,4.7481,4.7643,4.7641,4.764,4.764,4.7639,4.7176,4.7221,4.7259,4.7313,4.7343,4.7379,4.7423,4.7441,4.749,4.7546,4.7546,4.761,4.7646,4.7712,4.7736,4.7786,4.7766,4.7788,4.7794,4.7799,4.7805,4.7653,4.7795,4.7795,4.7794,4.7794,4.7794,0,4.7309,4.7333,4.7384,4.7438,4.7482,4.7466,4.7508,4.7545,4.7602,4.7637,4.7682,4.7749,4.7803,4.7827,4.788,4.7916,4.791,4.7929,4.7926,4.7931,4.782,4.7801,4.7933,4.7933,4.7933,4.7933,4.7933,4.7933,4.7384,4.746,4.7469,4.756,4.7583,4.7647,4.7672,4.7706,4.7734,4.7811,4.7856,4.7872,4.7903,4.7959,4.8008,4.8013,4.8033,4.8055,4.8058,4.7953,4.7939,4.7925,4.7908,4.806,4.806,4.8165,4.8166,4.8167]},{"header":{"parameterUnit":"m.s-1","parameterCategory":1,"la1":30.2991,"la2":30.254,"lo1":-89.0895,"lo2":-89.0444,"dy":0.0017,"dx":0.0017,"nx":28,"ny":28,"refTime":"2024-04-02T21:00:00:Z","depth":0,"parameterNumber":3,"parameterNumberName":"V-component_of_WINDS"},"data":[0,0,0,0,0,0,0,0,0,0,0,0,0,0,0,0,0,0,0,0,0,0,0,0,0,0,0,0,0,0,0,0,0,0,0,0,0,0,0,0,0,0,0,0,0,0,0,0,0,0,0,0,0,0,0,0,0,0,-7.4208,-7.421,0,-7.4367,-7.4369,-7.4371,-7.4323,-7.4319,-7.4316,-7.4313,-7.4472,-7.4479,-7.4486,0,0,0,0,0,0,0,0,0,0,0,0,0,-7.386,-7.3867,-7.4208,-7.421,-7.4212,-7.4367,-7.4369,-7.4371,-7.4323,-7.4319,-7.4315,-7.4311,-7.447,-7.4478,-7.4487,0,0,0,0,0,0,0,0,0,0,0,0,0,-7.4014,-7.3869,-7.4207,-7.4207,-7.4208,-7.4366,-7.4369,-7.4372,-7.4324,-7.4319,-7.4314,-7.431,-7.4467,-7.4478,-7.4488,-7.4655,0,0,-7.4522,-7.4527,0,0,0,0,0,0,0,0,-7.4006,-7.4027,-7.4205,-7.4207,-7.4209,-7.432,-7.4304,-7.4467,-7.4325,-7.428,-7.4313,-7.4307,-7.4425,-7.4439,-7.448,-7.4663,-7.467,-7.4523,-7.453,-7.4534,-7.4537,0,0,0,0,0,0,0,-7.3995,-7.402,-7.4271,-7.4207,-7.421,-7.4198,-7.4214,-7.4335,-7.4378,-7.4284,-7.4281,-7.43,-7.4425,-7.447,-7.4483,-7.4672,-7.4523,-7.4532,-7.4539,-7.4543,-7.5001,-7.5006,0,0,0,0,0,0,-7.3983,-7.4011,-7.4265,-7.4275,-7.4093,-7.4208,-7.4226,-7.4289,-7.4377,-7.4386,-7.4304,-7.4297,-7.4453,-7.4471,-7.4489,-7.4691,-7.4534,-7.4544,-7.4551,-7.4995,-7.5002,-7.5008,0,0,0,0,0,0,-7.3976,-7.4006,-7.4259,-7.4143,-7.4174,-7.4219,-7.429,-7.4295,-7.4339,-7.4393,-7.44,-7.4342,-7.445,-7.4473,-7.4615,-7.4695,-7.4549,-7.4559,-7.4989,-7.4997,-7.5005,-7.5095,0,0,0,0,0,0,-7.3966,-7.4004,-7.4069,-7.4145,-7.418,-7.4384,-7.4295,-7.4302,-7.4359,-7.4351,-7.443,-7.4438,-7.4448,-7.4599,-7.4626,-7.4708,-7.4568,-7.4981,-7.4992,-7.5002,-7.5085,-7.5106,-7.5123,0,0,0,0,0,-7.3954,-7.4087,-7.4072,-7.4103,-7.4262,-7.4388,-7.4409,-7.4419,-7.4365,-7.443,-7.4465,-7.4435,-7.4682,-7.4614,-7.4644,-7.473,-7.4976,-7.4989,-7.5001,-7.5077,-7.5102,-7.5123,0,0,0,0,0,0,-7.4018,-7.4097,-7.4081,-7.4243,-7.431,-7.438,-7.4462,-7.4445,-7.4527,-7.4516,-7.4524,-7.4542,-7.4687,-7.4723,-7.4645,-7.4897,-7.4821,-7.484,-7.4868,-7.4893,-7.4911,-7.4899,-7.4577,0,0,0,0,0,-7.4051,-7.4148,-7.4211,-7.4347,-7.4382,-7.4417,-7.4472,-7.4474,-7.4543,-7.457,-7.4615,-7.4682,-7.4775,-7.4836,-7.4924,-7.509,-7.5107,-7.5165,-7.5184,-7.5199,-7.5215,-7.5307,-7.5333,-7.5049,-7.5049,-7.5049,0,0,-7.412,-7.4175,-7.4235,-7.4362,-7.4414,-7.4513,-7.444,-7.4548,-7.4622,-7.4586,-7.4723,-7.4759,-7.4834,-7.4989,-7.5059,-7.5023,-7.5298,-7.5215,-7.5227,-7.5235,-7.5322,-7.5349,-7.5373,-7.5057,-7.5056,-7.5055,0,0,-7.4296,-7.4348,-7.4467,-7.4521,-7.4601,-7.4624,-7.4653,-7.4727,-7.4749,-7.4887,-7.4863,-7.495,-7.5109,-7.5164,-7.5213,-7.5412,-7.5387,-7.544,-7.5539,-7.5628,-7.565,-7.567,-7.5741,-7.5766,-7.5456,-7.5456,-7.5457,0,-7.4371,-7.4521,-7.4531,-7.4642,-7.4698,-7.4672,-7.4793,-7.4844,-7.4949,-7.4988,-7.4946,-7.5146,-7.5195,-7.5363,-7.5412,-7.5452,-7.5485,-7.5431,-7.5646,-7.5666,-7.5685,-7.5753,-7.5779,-7.5462,-7.5462,-7.5461,-7.546,0,-7.461,-7.4714,-7.4801,-7.4904,-7.497,-7.5086,-7.5112,-7.5178,-7.5175,-7.5201,-7.5342,-7.54,-7.55,-7.554,-7.5537,-7.5708,-7.5683,-7.5644,-7.5568,-7.5718,-7.5782,-7.5808,-7.5471,-7.5469,-7.5467,-7.5465,0,0,-7.483,-7.4938,-7.497,-7.5017,-7.5104,-7.5184,-7.5298,-7.5397,-7.5454,-7.5527,-7.5622,-7.5759,-7.5724,-7.5779,-7.5782,-7.586,-7.6014,-7.5812,-7.5813,-7.5847,-7.6206,-7.6235,-7.6265,-7.5999,-7.6004,-7.6008,-7.62,0,-7.5014,-7.5216,-7.5228,-7.5411,-7.5508,-7.5485,-7.5584,-7.5648,-7.5676,-7.5762,-7.5792,-7.5889,-7.5835,-7.5868,-7.5945,-7.598,-7.6087,-7.5966,-7.6088,-7.6092,-7.607,-7.6298,-7.6329,-7.6507,-7.6225,-7.6229,-7.6232,0,-7.5255,-7.5337,-7.553,-7.5605,-7.5646,-7.5735,-7.5827,-7.5909,-7.5981,-7.5996,-7.6059,-7.6052,-7.6168,-7.6089,-7.6249,-7.6167,-7.6217,-7.6242,-7.6249,-7.626,-7.6171,-7.6316,-7.6564,-7.6591,-7.6272,-7.6269,-7.6266,0,-7.5397,-7.5556,-7.5692,-7.5732,-7.5822,-7.5886,-7.5926,-7.5993,-7.6052,-7.6132,-7.6171,-7.6263,-7.6314,-7.6385,-7.6402,-7.6343,-7.6563,-7.6485,-7.6578,-7.6578,-7.6625,-7.6622,-7.6885,-7.6658,-7.6657,-7.6657,-7.6656,0,-7.5601,-7.572,-7.5757,-7.584,-7.5973,-7.5986,-7.6116,-7.6152,-7.6213,-7.6302,-7.6287,-7.6372,-7.639,-7.6478,-7.6492,-7.6623,-7.6645,-7.666,-7.6663,-7.6662,-7.666,-7.6695,-7.6683,-7.6664,-7.6662,-7.6661,-7.666,0,-7.5781,-7.5811,-7.5958,-7.6031,-7.6053,-7.6147,-7.621,-7.629,-7.6317,-7.6431,-7.6458,-7.65,-7.6602,-7.6627,-7.6749,-7.6759,-7.6913,-7.6904,-7.689,-7.6889,-7.6981,-7.6972,-7.7276,-7.7316,-7.7063,-7.7065,-7.7067,0,-7.5909,-7.6001,-7.6085,-7.6145,-7.6188,-7.6284,-7.6345,-7.6361,-7.6425,-7.6515,-7.6584,-7.6685,-7.6767,-7.6932,-7.6973,-7.7066,-7.7059,-7.7159,-7.7072,-7.7069,-7.706,-7.7055,-7.7064,-7.7175,-7.7177,-7.718,-7.7181,0,-7.6134,-7.6145,-7.6233,-7.6328,-7.6401,-7.6476,-7.6548,-7.6597,-7.6623,-7.6695,-7.6801,-7.6865,-7.6991,-7.7091,-7.7185,-7.7225,-7.7208,-7.7209,-7.7235,-7.7235,-7.7223,-7.7231,-7.6935,-7.7201,-7.7199,-7.7198,-7.7197,-7.7196,-7.6292,-7.6373,-7.6445,-7.6544,-7.66,-7.6668,-7.6747,-7.6784,-7.6873,-7.6978,-7.6982,-7.7097,-7.7167,-7.7292,-7.7337,-7.7427,-7.7396,-7.7435,-7.7444,-7.7454,-7.7462,-7.7209,-7.7444,-7.7444,-7.7443,-7.7443,-7.7442,0,-7.6516,-7.6562,-7.6654,-7.6755,-7.6833,-7.6812,-7.689,-7.6957,-7.7059,-7.7126,-7.7207,-7.7329,-7.7427,-7.7476,-7.7573,-7.7635,-7.763,-7.766,-7.7656,-7.7665,-7.7484,-7.7451,-7.7663,-7.7663,-7.7663,-7.7663,-7.7663,-7.7663,-7.6642,-7.6777,-7.6797,-7.6959,-7.7003,-7.7117,-7.7164,-7.7226,-7.728,-7.7417,-7.7499,-7.753,-7.759,-7.7692,-7.778,-7.7792,-7.7828,-7.7863,-7.7871,-7.77,-7.7678,-7.7656,-7.7626,-7.7871,-7.7871,-7.8045,-7.8046,-7.8047]}]]